{"data":{"norad_id":65466,"epoch":"2026-05-25T00:52:48.320832Z","epoch_age_seconds":82362,"freshness":"FRESH","line1":"1 65466U 25195J   26145.03667038  .00024961  00000+0  76660-3 0  9999","line2":"2 65466  53.1599 263.4951 0001915  76.9505 283.1711 15.33597128 41685","mean_motion":15.33597128,"eccentricity":0.0001915,"inclination_deg":53.1599,"raan_deg":263.4951,"arg_perigee_deg":76.9505,"mean_anomaly_deg":283.1711,"bstar":0.0007666,"rev_number":4168,"period_min":93.896889457399,"perigee_km":463.78010791486,"apogee_km":466.4010640803,"semimajor_km":6843.2275859976,"source":"CELESTRAK","updated_at":"2026-05-25T13:38:20.813327Z"}}